Simultaneous Nadir Overpasses (SNOs) Predictions

Prediction of SNOs between AQUA and METOP-C Satellite Orbit:

Table of predicted SNOs for the next 14.0 days since TLE Epoch: 12/31/2022
Index Date (AQUA) Time (AQUA) Lat,Lon (AQUA) SZA (AQUA ) Date (METOP-C) Time (METOP-C) Lat,Lon (METOP-C) SZA (METOP-C ) Distance(km) Time Diff (sec)
1 12/31/2022 03:00:42 74.16, 130.02 97.25 12/31/2022 03:00:38 74.16, 129.96 97.25 1.96 4
2 12/31/2022 03:50:08 -74.22, -62.46 82.70 12/31/2022 03:51:17 -74.24, -62.52 82.69 2.77 69
3 01/02/2023 20:54:51 74.11,-138.38 96.98 01/02/2023 20:53:38 74.11,-138.41 96.98 0.95 73
4 01/02/2023 21:44:17 -74.17, 29.14 82.98 01/02/2023 21:44:17 -74.19, 29.11 82.95 2.85 0
5 01/02/2023 22:33:45 74.25,-163.42 97.12 01/02/2023 22:34:57 74.24,-163.44 97.10 1.81 72
6 01/05/2023 15:38:26 -74.11, 120.75 83.31 01/05/2023 15:37:18 -74.14, 120.73 83.28 2.79 68
7 01/05/2023 16:27:54 74.20, -71.82 96.79 01/05/2023 16:27:58 74.18, -71.83 96.76 2.70 4
8 01/05/2023 17:17:23 -74.40, 95.34 83.01 01/05/2023 17:18:34 -74.41, 96.09 83.03 22.22 71
9 01/08/2023 10:22:02 74.15, 19.79 96.40 01/08/2023 10:20:58 74.16, 19.87 96.41 2.86 64
10 01/08/2023 11:11:28 -74.20,-172.68 83.56 01/08/2023 11:11:38 -74.20,-172.70 83.56 0.54 10
11 01/08/2023 12:01:02 74.60, -6.01 96.87 01/08/2023 12:02:11 74.58, -4.38 96.79 48.12 69
12 01/11/2023 05:05:34 -74.14, -81.06 84.01 01/11/2023 05:04:38 -74.13, -81.12 84.01 2.34 56
13 01/11/2023 05:55:01 74.19, 86.48 96.04 01/11/2023 05:55:17 74.21, 86.41 96.06 2.94 16
14 01/11/2023 06:44:39 -74.84,-107.49 83.27 01/11/2023 06:45:45 -74.83,-104.60 83.37 84.21 66
15 01/13/2023 23:49:08 74.18, 177.98 95.59 01/13/2023 23:48:17 74.17, 178.07 95.58 3.28 51
16 01/14/2023 00:38:34 -74.23, -14.48 84.37 01/14/2023 00:38:57 -74.22, -14.46 84.38 0.90 23



Historial Predications of SNOs between AQUA and METOP-C
